K4DNM Weather Reports


Display with metric or nautical units.
time (UTC)temp
F
wind
direction
speed
MPH
gust
MPH
rain 1hr
in
rain 24hr
in
rain mn
in
humidity
%
barometer
mb
20260901215937 94 233 0.0 2.0 0.00 0.00 0.00 58 1015.0
20260901215437 94 0 1.0 3.0 0.00 0.00 0.00 58 1015.0
20260901214934 94 0 1.0 3.0 0.00 0.00 0.00 56 1015.0
20260901214435 95 200 1.0 2.0 0.00 0.00 0.00 56 1015.0
20260901213933 95 288 1.0 3.0 0.00 0.00 0.00 55 1015.0
20260901213432 95 148 1.0 3.0 0.00 0.00 0.00 56 1015.0
20260901212932 96 237 1.0 3.0 0.00 0.00 0.00 53 1015.0
20260901212433 96 181 1.0 4.0 0.00 0.00 0.00 55 1015.0
20260901211932 96 0 1.0 4.0 0.00 0.00 0.00 56 1015.0
20260901211653 96 240 0.0 4.0 0.00 0.00 0.00 54 1014.9
20260901211534 96 240 0.0 4.0 0.00 0.00 0.00 54 1014.9
20260901210930 96 0 1.0 4.0 0.00 0.00 0.00 55 1014.9
20260901210910 96 210 1.0 3.0 0.00 0.00 0.00 51 1015.0
20260901210532 96 210 1.0 3.0 0.00 0.00 0.00 51 1015.0
20260901205927 96 227 1.0 4.0 0.00 0.00 0.00 53 1015.0
20260901205424 96 213 1.0 4.0 0.00 0.00 0.00 49 1015.0
20260901204923 97 158 1.0 3.0 0.00 0.00 0.00 53 1015.0
20260901204421 97 214 1.0 4.0 0.00 0.00 0.00 51 1015.0
20260901203921 96 176 1.0 4.0 0.00 0.00 0.00 54 1015.0
20260901203430 97 256 1.0 4.0 0.00 0.00 0.00 53 1014.9
20260901202917 96 0 1.0 3.0 0.00 0.00 0.00 51 1014.9
20260901202416 96 325 1.0 3.0 0.00 0.00 0.00 53 1015.0
20260901201913 96 193 1.0 4.0 0.00 0.00 0.00 52 1015.1
20260901201409 96 183 2.0 4.0 0.00 0.00 0.00 52 1015.1
20260901200911 97 171 2.0 4.0 0.00 0.00 0.00 51 1015.1
20260901200406 97 160 1.0 4.0 0.00 0.00 0.00 52 1015.2
20260901195907 97 215 1.0 4.0 0.00 0.00 0.00 53 1015.3
20260901195400 97 0 1.0 3.0 0.00 0.00 0.00 49 1015.3
20260901194858 97 165 1.0 3.0 0.00 0.00 0.00 51 1015.4
20260901194359 97 250 1.0 3.0 0.00 0.00 0.00 51 1015.5
20260901193855 97 198 1.0 3.0 0.00 0.00 0.00 50 1015.5
20260901193353 97 197 1.0 3.0 0.00 0.00 0.00 51 1015.5
20260901192906 97 0 1.0 3.0 0.00 0.00 0.00 54 1015.5
20260901192350 97 237 2.0 3.0 0.00 0.00 0.00 53 1015.5
20260901192343 97 229 1.0 3.0 0.00 0.00 0.00 50 1015.6
20260901191951 97 229 1.0 3.0 0.00 0.00 0.00 50 1015.6
20260901191347 97 265 1.0 3.0 0.00 0.00 0.00 51 1015.6
20260901191102 97 247 1.0 3.0 0.00 0.00 0.00 51 1015.7
20260901190950 97 247 1.0 3.0 0.00 0.00 0.00 51 1015.7
20260901190604 97 230 1.0 4.0 0.00 0.00 0.00 51 1015.7
20260901190453 97 230 1.0 4.0 0.00 0.00 0.00 51 1015.7
20260901185843 97 0 1.0 4.0 0.00 0.00 0.00 51 1015.7
20260901185830 97 356 1.0 3.0 0.00 0.00 0.00 52 1015.8
20260901185449 97 356 1.0 3.0 0.00 0.00 0.00 52 1015.8
20260901184842 96 353 1.0 3.0 0.00 0.00 0.00 54 1015.8
20260901184342 96 101 1.0 3.0 0.00 0.00 0.00 51 1015.9
20260901184047 95 309 2.0 6.0 0.00 0.00 0.00 56 1015.9
20260901183958 96 241 1.0 6.0 0.00 0.00 0.00 56 1015.9
20260901183442 95 309 2.0 6.0 0.00 0.00 0.00 56 1015.9
20260901182835 95 0 2.0 5.0 0.00 0.00 0.00 55 1015.9
20260901182335 96 117 1.0 4.0 0.00 0.00 0.00 55 1015.9
20260901181836 96 321 1.0 2.0 0.00 0.00 0.00 58 1015.9
20260901181332 95 58 1.0 4.0 0.00 0.00 0.00 56 1015.9
20260901180835 95 335 2.0 4.0 0.00 0.00 0.00 57 1016.0
20260901180328 95 6 1.0 5.0 0.00 0.00 0.00 56 1016.1
20260901180313 95 311 1.0 5.0 0.00 0.00 0.00 59 1016.1
20260901175931 95 311 1.0 5.0 0.00 0.00 0.00 59 1016.1
20260901175328 94 310 2.0 5.0 0.00 0.00 0.00 58 1016.2
20260901174824 94 156 2.0 5.0 0.00 0.00 0.00 57 1016.1
20260901174326 94 197 2.0 5.0 0.00 0.00 0.00 57 1016.1
20260901173822 94 164 2.0 5.0 0.00 0.00 0.00 57 1016.2
20260901173319 95 141 2.0 4.0 0.00 0.00 0.00 56 1016.3
20260901172816 96 163 1.0 4.0 0.00 0.00 0.00 55 1016.3
20260901172315 96 74 1.0 3.0 0.00 0.00 0.00 53 1016.3
20260901171814 96 340 1.0 3.0 0.00 0.00 0.00 55 1016.3
20260901171312 95 343 1.0 2.0 0.00 0.00 0.00 55 1016.4
20260901170809 95 319 1.0 4.0 0.00 0.00 0.00 57 1016.4
20260901170311 94 72 1.0 4.0 0.00 0.00 0.00 57 1016.5
20260901165809 94 146 1.0 4.0 0.00 0.00 0.00 56 1016.5
20260901165307 95 128 1.0 3.0 0.00 0.00 0.00 56 1016.5
20260901164806 95 152 1.0 4.0 0.00 0.00 0.00 60 1016.6
20260901164525 94 341 1.0 4.0 0.00 0.00 0.00 58 1016.6
20260901164409 94 341 1.0 4.0 0.00 0.00 0.00 58 1016.6
20260901163805 94 344 1.0 2.0 0.00 0.00 0.00 60 1016.8
20260901163302 93 145 1.0 2.0 0.00 0.00 0.00 58 1016.8
20260901162802 93 0 1.0 2.0 0.00 0.00 0.00 60 1016.9
20260901162301 94 24 1.0 4.0 0.00 0.00 0.00 58 1017.0
20260901161801 94 272 2.0 4.0 0.00 0.00 0.00 57 1017.0
20260901161516 95 259 1.0 3.0 0.00 0.00 0.00 58 1017.1
20260901161401 95 259 1.0 3.0 0.00 0.00 0.00 58 1017.1
20260901160756 95 343 1.0 3.0 0.00 0.00 0.00 56 1017.1
20260901160254 94 10 1.0 3.0 0.00 0.00 0.00 59 1017.2
20260901155752 94 320 1.0 2.0 0.00 0.00 0.00 62 1017.2
20260901155251 94 348 1.0 2.0 0.00 0.00 0.00 62 1017.2
20260901154749 93 341 1.0 2.0 0.00 0.00 0.00 62 1017.3
20260901154248 93 4 1.0 4.0 0.00 0.00 0.00 62 1017.3
20260901154017 93 0 1.0 4.0 0.00 0.00 0.00 63 1017.3
20260901153854 93 0 1.0 4.0 0.00 0.00 0.00 63 1017.3
20260901153246 92 0 1.0 3.0 0.00 0.00 0.00 62 1017.4
20260901152748 93 182 1.0 4.0 0.00 0.00 0.00 61 1017.4
20260901152244 92 0 1.0 4.0 0.00 0.00 0.00 63 1017.5
20260901151744 92 228 1.0 4.0 0.00 0.00 0.00 61 1017.6
20260901151242 92 213 1.0 4.0 0.00 0.00 0.00 61 1017.6
20260901150741 92 47 1.0 2.0 0.00 0.00 0.00 61 1017.6
20260901150238 92 341 1.0 4.0 0.00 0.00 0.00 62 1017.6
20260901145736 91 224 1.0 4.0 0.00 0.00 0.00 63 1017.7
20260901145234 91 289 1.0 4.0 0.00 0.00 0.00 64 1017.7
20260901144733 90 350 1.0 4.0 0.00 0.00 0.00 63 1017.7
20260901144232 90 358 1.0 3.0 0.00 0.00 0.00 63 1017.7
20260901143742 90 226 1.0 3.0 0.00 0.00 0.00 64 1017.7
20260901143229 90 346 1.0 3.0 0.00 0.00 0.00 63 1017.7
20260901142728 90 0 1.0 3.0 0.00 0.00 0.00 66 1017.7
20260901142227 90 191 1.0 3.0 0.00 0.00 0.00 66 1017.7
20260901141953 90 32 1.0 3.0 0.00 0.00 0.00 65 1017.7
20260901141830 90 32 1.0 3.0 0.00 0.00 0.00 65 1017.7
20260901141225 89 204 1.0 3.0 0.00 0.00 0.00 67 1017.6
20260901140720 89 62 1.0 3.0 0.00 0.00 0.00 67 1017.6
20260901140219 89 320 1.0 3.0 0.00 0.00 0.00 68 1017.6
20260901135719 89 355 1.0 3.0 0.00 0.00 0.00 67 1017.6
20260901135215 89 0 0.0 3.0 0.00 0.00 0.00 69 1017.6
20260901134715 89 350 0.0 2.0 0.00 0.00 0.00 68 1017.6
20260901134214 88 344 1.0 3.0 0.00 0.00 0.00 70 1017.6
20260901133715 87 355 1.0 3.0 0.00 0.00 0.00 72 1017.6
20260901133215 87 234 1.0 3.0 0.00 0.00 0.00 73 1017.6
20260901132715 86 233 1.0 3.0 0.00 0.00 0.00 76 1017.7
20260901132216 86 185 0.0 3.0 0.00 0.00 0.00 75 1017.7
20260901132159 86 0 0.0 3.0 0.00 0.00 0.00 75 1017.7
20260901131820 86 0 0.0 3.0 0.00 0.00 0.00 75 1017.7
20260901131209 85 0 0.0 3.0 0.00 0.00 0.00 76 1017.7
20260901130707 85 254 0.0 2.0 0.00 0.00 0.00 78 1017.7
20260901130205 84 248 0.0 3.0 0.00 0.00 0.00 80 1017.7
20260901125705 83 274 0.0 3.0 0.00 0.00 0.00 79 1017.6
20260901125205 83 62 0.0 1.0 0.00 0.00 0.00 82 1017.6
20260901124710 82 355 0.0 2.0 0.00 0.00 0.00 85 1017.5
20260901124204 80 0 0.0 2.0 0.00 0.00 0.00 89 1017.5
20260901123705 79 0 0.0 2.0 0.00 0.00 0.00 93 1017.5
20260901123201 78 0 0.0 3.0 0.00 0.00 0.00 96 1017.5
20260901122933 77 145 0.0 3.0 0.00 0.00 0.00 96 1017.5
20260901122819 77 145 0.0 3.0 0.00 0.00 0.00 96 1017.5
20260901122655 76 92 0.0 2.0 0.00 0.00 0.00 97 1017.4
20260901122308 76 92 0.0 2.0 0.00 0.00 0.00 97 1017.4
20260901121703 76 172 0.0 1.0 0.00 0.00 0.00 97 1017.4
20260901121202 75 0 0.0 0.0 0.00 0.00 0.00 97 1017.3
20260901120638 74 0 0.0 0.0 0.00 0.00 0.00 97 1017.3
20260901120340 74 0 0.0 0.0 0.00 0.00 0.00 97 1017.3
20260901120225 74 0 0.0 0.0 0.00 0.00 0.00 97 1017.3
20260901115617 74 0 0.0 0.0 0.00 0.00 0.00 97 1017.3
20260901115106 74 0 0.0 0.0 0.00 0.00 0.00 97 1017.2
20260901114604 74 0 0.0 0.0 0.00 0.00 0.00 97 1017.2
20260901114317 74 0 0.0 1.0 0.00 0.00 0.00 97 1017.2
20260901114154 74 0 0.0 1.0 0.00 0.00 0.00 97 1017.2
20260901113540 74 0 0.0 1.0 0.00 0.00 0.00 97 1017.2
20260901113034 74 0 0.0 0.0 0.00 0.00 0.00 97 1017.1
20260901112539 73 0 0.0 0.0 0.00 0.00 0.00 97 1017.1
20260901112020 73 0 0.0 0.0 0.00 0.00 0.00 97 1017.1
20260901111507 73 0 0.0 0.0 0.00 0.00 0.00 97 1017.0
20260901111007 73 0 0.0 0.0 0.00 0.00 0.00 97 1017.0
20260901110452 73 0 0.0 1.0 0.00 0.00 0.00 97 1017.0
20260901105939 73 0 0.0 1.0 0.00 0.00 0.00 97 1016.9
20260901105435 73 182 0.0 1.0 0.00 0.00 0.00 97 1016.9
20260901104937 73 0 0.0 0.0 0.00 0.00 0.00 97 1016.8
20260901104437 74 0 0.0 1.0 0.00 0.00 0.00 97 1016.8
20260901103937 74 181 0.0 1.0 0.00 0.00 0.00 97 1016.7
20260901103646 74 0 0.0 1.0 0.00 0.00 0.00 97 1016.7
20260901103526 74 0 0.0 1.0 0.00 0.00 0.00 97 1016.7
20260901102908 74 0 0.0 1.0 0.00 0.00 0.00 97 1016.6
20260901102614 74 0 0.0 0.0 0.00 0.00 0.00 97 1016.6
20260901102458 74 0 0.0 0.0 0.00 0.00 0.00 97 1016.6
20260901101821 74 0 0.0 1.0 0.00 0.00 0.00 97 1016.5
20260901101322 74 0 0.0 2.0 0.00 0.00 0.00 97 1016.5
20260901100822 74 0 1.0 2.0 0.00 0.00 0.00 97 1016.5
20260901100320 74 176 0.0 2.0 0.00 0.00 0.00 97 1016.5
20260901095820 74 200 0.0 2.0 0.00 0.00 0.00 96 1016.6
20260901095308 74 166 0.0 2.0 0.00 0.00 0.00 96 1016.6
20260901094753 74 0 0.0 1.0 0.00 0.00 0.00 96 1016.6
20260901094242 74 0 0.0 1.0 0.00 0.00 0.00 96 1016.7
20260901093722 74 0 0.0 1.0 0.00 0.00 0.00 96 1016.7
20260901093208 74 0 0.0 0.0 0.00 0.00 0.00 96 1016.7
20260901092656 74 0 0.0 0.0 0.00 0.00 0.00 96 1016.7
20260901092137 74 0 0.0 1.0 0.00 0.00 0.00 96 1016.6
20260901091623 74 0 0.0 2.0 0.00 0.00 0.00 96 1016.6
20260901091120 74 0 1.0 2.0 0.00 0.00 0.00 96 1016.7
20260901090609 74 209 1.0 2.0 0.00 0.00 0.00 96 1016.7
20260901090107 74 0 1.0 2.0 0.00 0.00 0.00 96 1016.7
20260901085542 74 173 1.0 2.0 0.00 0.00 0.00 96 1016.8
20260901085245 74 192 0.0 2.0 0.00 0.00 0.00 96 1016.9
20260901085128 74 192 0.0 2.0 0.00 0.00 0.00 96 1016.9
20260901084710 74 0 0.0 0.0 0.00 0.00 0.00 96 1016.9
20260901084552 74 0 0.0 0.0 0.00 0.00 0.00 96 1016.9
20260901084058 74 0 0.0 0.0 0.00 0.00 0.00 96 1016.9
20260901083702 74 0 0.0 0.0 0.00 0.00 0.00 96 1016.8
20260901083545 74 0 0.0 0.0 0.00 0.00 0.00 96 1016.8
20260901082924 74 0 0.0 0.0 0.00 0.00 0.00 96 1016.9
20260901082421 74 0 0.0 0.0 0.00 0.00 0.00 96 1017.0
20260901081910 74 0 0.0 0.0 0.00 0.00 0.00 96 1017.0
20260901081616 74 0 0.0 1.0 0.00 0.00 0.00 96 1017.0
20260901081459 74 0 0.0 1.0 0.00 0.00 0.00 96 1017.0
20260901080843 74 0 0.0 1.0 0.00 0.00 0.00 96 1017.0
20260901080325 74 171 0.0 1.0 0.00 0.00 0.00 96 1017.0
20260901075810 74 0 0.0 0.0 0.00 0.00 0.00 96 1017.1
20260901075258 74 0 0.0 1.0 0.00 0.00 0.00 96 1017.1
20260901074754 74 0 0.0 1.0 0.00 0.00 0.00 96 1017.1
20260901074746 74 0 0.0 0.0 0.00 0.00 0.00 95 1017.1
20260901074400 74 0 0.0 0.0 0.00 0.00 0.00 95 1017.1
20260901073755 74 0 0.0 0.0 0.00 0.00 0.00 95 1017.1
20260901073239 74 0 0.0 1.0 0.00 0.00 0.00 95 1017.1
20260901072738 74 0 0.0 1.0 0.00 0.00 0.00 95 1017.2
20260901072239 74 0 0.0 0.0 0.00 0.00 0.00 95 1017.2
20260901071722 74 0 0.0 0.0 0.00 0.00 0.00 95 1017.2
20260901071223 74 0 0.0 1.0 0.00 0.00 0.00 95 1017.2
20260901070739 74 0 0.0 1.0 0.00 0.00 0.00 95 1017.2
20260901070211 74 0 0.0 0.0 0.00 0.00 0.00 95 1017.3
20260901065923 74 79 0.0 1.0 0.00 0.00 0.00 95 1017.3
20260901065801 74 79 0.0 1.0 0.00 0.00 0.00 95 1017.3
20260901065145 74 0 0.0 1.0 0.00 0.00 0.00 95 1017.3
20260901064625 75 187 0.0 1.0 0.00 0.00 0.00 95 1017.3
20260901064123 75 0 0.0 0.0 0.00 0.00 0.00 95 1017.4
20260901063612 75 0 0.0 0.0 0.00 0.00 0.00 95 1017.4
20260901063101 75 0 0.0 0.0 0.00 0.00 0.00 95 1017.4
20260901062541 75 0 0.0 2.0 0.00 0.00 0.00 95 1017.4
20260901062026 75 170 0.0 2.0 0.00 0.00 0.00 95 1017.4
20260901061514 75 181 0.0 2.0 0.00 0.00 0.00 94 1017.4
20260901061009 75 0 0.0 2.0 0.00 0.00 0.00 94 1017.4
20260901060732 75 0 0.0 2.0 0.00 0.00 0.00 94 1017.5
20260901060615 75 0 0.0 2.0 0.00 0.00 0.00 94 1017.5
20260901060004 75 0 0.0 1.0 0.00 0.00 0.00 94 1017.5
20260901055458 75 0 0.0 2.0 0.00 0.00 0.00 94 1017.6
20260901054957 75 0 0.0 2.0 0.00 0.00 0.00 94 1017.6
20260901054456 75 0 0.0 1.0 0.00 0.00 0.00 93 1017.6
20260901053953 75 0 0.0 0.0 0.00 0.00 0.00 93 1017.7
20260901053451 75 0 0.0 0.0 0.00 0.00 0.00 93 1017.7
20260901053210 75 0 0.0 0.0 0.00 0.00 0.00 93 1017.7
20260901053055 75 0 0.0 0.0 0.00 0.00 0.00 93 1017.7
20260901052450 75 0 0.0 0.0 0.00 0.00 0.00 93 1017.7
20260901051949 76 0 0.0 0.0 0.00 0.00 0.00 92 1017.8
20260901051446 76 0 0.0 0.0 0.00 0.00 0.00 92 1017.8
20260901050947 76 0 0.0 1.0 0.00 0.00 0.00 92 1017.9
20260901050921 76 0 0.0 2.0 0.00 0.00 0.00 92 1017.9
20260901050548 76 0 0.0 2.0 0.00 0.00 0.00 92 1017.9
20260901045942 76 0 0.0 2.0 0.00 0.00 0.00 92 1017.9
20260901045440 76 0 0.0 1.0 0.00 0.00 0.00 91 1017.8
20260901044937 76 0 0.0 1.0 0.00 0.00 0.00 91 1017.8
20260901044434 76 0 0.0 2.0 0.00 0.00 0.00 91 1017.8
20260901043935 77 0 1.0 4.0 0.00 0.00 0.00 91 1017.7
20260901043431 77 0 1.0 4.0 0.00 0.00 0.00 91 1017.6
20260901042932 77 161 1.0 4.0 0.00 0.00 0.00 90 1017.5
20260901042654 77 178 1.0 3.0 0.00 0.00 0.00 90 1017.5
20260901042532 77 178 1.0 3.0 0.00 0.00 0.00 90 1017.5
20260901041927 77 199 0.0 3.0 0.00 0.00 0.00 90 1017.5
20260901041428 77 186 0.0 3.0 0.00 0.00 0.00 89 1017.6
20260901040925 77 0 0.0 3.0 0.00 0.00 0.00 89 1017.6
20260901040437 78 232 1.0 3.0 0.00 0.00 0.00 89 1017.6
20260901035922 78 208 1.0 3.0 0.00 0.00 0.00 88 1017.6
20260901035417 78 179 1.0 4.0 0.00 0.00 0.00 88 1017.5
20260901034919 78 143 1.0 4.0 0.00 0.00 0.00 87 1017.5
20260901034419 78 198 2.0 7.0 0.00 0.00 0.00 86 1017.5
20260901033920 78 207 3.0 7.0 0.00 0.00 0.00 86 1017.4
20260901033416 78 170 3.0 5.0 0.00 0.00 0.00 85 1017.3
20260901032914 78 161 3.0 5.0 0.00 0.00 0.00 84 1017.3
20260901032413 78 171 2.0 6.0 0.00 0.00 0.00 83 1017.3
20260901031910 78 214 2.0 6.0 0.00 0.00 0.00 82 1017.4
20260901031410 77 233 1.0 4.0 0.00 0.00 0.00 83 1017.4
20260901030907 77 159 0.0 3.0 0.00 0.00 0.00 84 1017.4
20260901030629 76 0 1.0 4.0 0.00 0.00 0.00 85 1017.4
20260901030511 76 0 1.0 4.0 0.00 0.00 0.00 85 1017.4
20260901025904 76 0 1.0 4.0 0.00 0.00 0.00 87 1017.4
20260901025403 76 0 1.0 4.0 0.00 0.00 0.00 89 1017.4
20260901024904 76 166 0.0 1.0 0.00 0.00 0.00 89 1017.3
20260901024402 76 0 0.0 1.0 0.00 0.00 0.00 89 1017.4
20260901023902 76 0 0.0 1.0 0.00 0.00 0.00 89 1017.3
20260901023618 76 0 0.0 1.0 0.00 0.00 0.00 89 1017.2
20260901023505 76 0 0.0 1.0 0.00 0.00 0.00 89 1017.2
20260901023122 76 211 0.0 1.0 0.00 0.00 0.00 88 1017.2
20260901023002 76 211 0.0 1.0 0.00 0.00 0.00 88 1017.2
20260901022358 76 0 0.0 1.0 0.00 0.00 0.00 88 1017.3
20260901021856 76 274 0.0 1.0 0.00 0.00 0.00 87 1017.3
20260901021356 76 0 0.0 1.0 0.00 0.00 0.00 87 1017.3
20260901021347 76 0 0.0 0.0 0.00 0.00 0.00 87 1017.3
20260901021001 76 0 0.0 0.0 0.00 0.00 0.00 87 1017.3
20260901020355 76 0 0.0 0.0 0.00 0.00 0.00 86 1017.3
20260901015856 77 277 0.0 0.0 0.00 0.00 0.00 86 1017.4
20260901015355 77 0 0.0 1.0 0.00 0.00 0.00 87 1017.3
20260901015335 77 0 0.0 1.0 0.00 0.00 0.00 87 1017.2
20260901014957 77 0 0.0 1.0 0.00 0.00 0.00 87 1017.2
20260901014621 77 0 0.0 0.0 0.00 0.00 0.00 86 1017.2
20260901014457 77 0 0.0 0.0 0.00 0.00 0.00 86 1017.2
20260901014109 78 0 0.0 1.0 0.00 0.00 0.00 87 1017.2
20260901013957 78 0 0.0 1.0 0.00 0.00 0.00 87 1017.2
20260901013618 78 0 0.0 1.0 0.00 0.00 0.00 86 1017.1
20260901013458 78 0 0.0 1.0 0.00 0.00 0.00 86 1017.1
20260901012851 78 0 0.0 1.0 0.00 0.00 0.00 85 1017.0
20260901012350 78 259 0.0 0.0 0.00 0.00 0.00 83 1016.9
20260901011846 78 0 0.0 1.0 0.00 0.00 0.00 83 1016.9
20260901011343 78 0 0.0 2.0 0.00 0.00 0.00 85 1016.9
20260901010844 78 0 0.0 2.0 0.00 0.00 0.00 85 1016.8
20260901010343 78 0 0.0 1.0 0.00 0.00 0.00 86 1016.8
20260901005844 78 210 0.0 2.0 0.00 0.00 0.00 85 1016.7
20260901005556 78 0 0.0 2.0 0.00 0.00 0.00 86 1016.7
20260901005442 78 0 0.0 2.0 0.00 0.00 0.00 86 1016.7
20260901004834 79 197 0.0 2.0 0.00 0.00 0.00 85 1016.7
20260901004331 79 0 0.0 1.0 0.00 0.00 0.00 85 1016.7
20260901003829 79 249 0.0 1.0 0.00 0.00 0.00 84 1016.7
20260901003327 80 0 0.0 1.0 0.00 0.00 0.00 82 1016.6
20260901002822 80 0 0.0 1.0 0.00 0.00 0.00 82 1016.6
20260901002318 80 233 0.0 1.0 0.00 0.00 0.00 81 1016.5
20260901001818 80 0 0.0 1.0 0.00 0.00 0.00 79 1016.5
20260901001315 81 0 0.0 1.0 0.00 0.00 0.00 80 1016.5
20260901000813 81 206 0.0 1.0 0.00 0.00 0.00 79 1016.5
20260901000314 81 0 0.0 1.0 0.00 0.00 0.00 79 1016.5
20260831235810 82 204 0.0 2.0 0.00 0.00 0.00 77 1016.5
20260831235311 82 198 0.0 2.0 0.00 0.00 0.00 78 1016.5
20260831234807 83 232 0.0 1.0 0.00 0.00 0.00 75 1016.5
20260831234307 83 0 0.0 1.0 0.00 0.00 0.00 75 1016.4
20260831233806 83 0 0.0 1.0 0.00 0.00 0.00 74 1016.5
20260831233306 84 0 0.0 1.0 0.00 0.00 0.00 73 1016.4
20260831232807 84 83 0.0 1.0 0.00 0.00 0.00 73 1016.5
20260831232307 84 0 0.0 1.0 0.00 0.00 0.00 73 1016.5
20260831231805 84 0 0.0 2.0 0.00 0.00 0.00 73 1016.5
20260831231528 84 167 0.0 2.0 0.00 0.00 0.00 71 1016.5
20260831231409 84 167 0.0 2.0 0.00 0.00 0.00 71 1016.5
20260831230801 84 0 0.0 0.0 0.00 0.00 0.00 71 1016.5
20260831230300 85 0 0.0 0.0 0.00 0.00 0.00 70 1016.4
20260831225758 85 0 0.0 1.0 0.00 0.00 0.00 68 1016.4
20260831225258 85 0 0.0 1.0 0.00 0.00 0.00 67 1016.4
20260831224756 85 0 0.0 1.0 0.00 0.00 0.00 66 1016.3
20260831224513 85 0 0.0 1.0 0.00 0.00 0.00 66 1016.2
20260831224400 85 0 0.0 1.0 0.00 0.00 0.00 66 1016.2
20260831223753 86 0 0.0 1.0 0.00 0.00 0.00 65 1016.2
20260831223305 86 0 0.0 1.0 0.00 0.00 0.00 64 1016.2
20260831222750 87 238 0.0 1.0 0.00 0.00 0.00 64 1016.2
20260831222250 87 0 0.0 1.0 0.00 0.00 0.00 63 1016.2
20260831222010 88 0 0.0 1.0 0.00 0.00 0.00 63 1016.2
20260831221852 88 0 0.0 1.0 0.00 0.00 0.00 63 1016.2
20260831221251 89 0 0.0 1.0 0.00 0.00 0.00 61 1016.2
20260831220744 89 0 0.0 1.0 0.00 0.00 0.00 60 1016.2